Location: Gro�sch�nbrunn
(49.5760°N, 11.8868°E)
Time: 14:36:32
(UTC+00:00)

USA 234 - Pass Details

Date: 18 September 2020
Orbit: 1102 x 1106 km, 123.0° (Epoch: 16 October)

Event Time Altitude Azimuth Distance (km) Brightness Sun altitude
Rises 21:58:54 0° 65° (ENE) 3,924 6.2 -37.0°
Reaches altitude 10° 22:01:27 10° 61° (ENE) 2,966 5.6 -37.1°
Enters shadow 22:03:22 20° 55° (NE) 2,286 5.0 -37.2°
Exits shadow 22:06:55 49° 12° (NNE) 1,400 3.9 -37.4°
Maximum altitude 22:07:44 52° 348° (NNW) 1,356 3.9 -37.5°
Drops below altitude 10° 22:14:01 10° 275° (W) 2,965 5.7 -37.8°
Sets 22:16:33 0° 270° (W) 3,922 6.3 -37.9°
